• Processing (Info)

  • MPEC 2023-Q01 : 2023 PO1

    The following Minor Planet Electronic Circular may be linked-to from your own Web pages, but must not otherwise be redistributed electronically.

    A form allowing access to any MPEC is at the bottom of this page.


    Read MPEC 2023-P87 Read MPEC 2023-Q02


    M.P.E.C. 2023-Q01                               Issued 2023 August 16, 00:58 UT
    
         The Minor Planet Electronic Circulars contain information on unusual
             minor planets, routine data on comets and natural satellites,
             and occasional editorial announcements.  They are published
        on behalf of Division F of the International Astronomical Union by the
              Minor Planet Center, Smithsonian Astrophysical Observatory,
                              Cambridge, MA 02138, U.S.A.
    			  
                 Prepared using the Tamkin Foundation Computer Network
    
                                  MPC@CFA.HARVARD.EDU
                URL https://www.minorplanetcenter.net/    ISSN 1523-6714
    
                                    2023 PO1                                 
    
    
    Observations:
         K23P01O* C2023 08 15.01059923 34 39.61 +04 57 27.1          19.8 RoEQ001K88
         K23P01O  C2023 08 15.01355623 34 39.28 +04 57 07.8          19.7 RoEQ001K88
         K23P01O  C2023 08 15.01651123 34 38.89 +04 56 48.7          19.6 RoEQ001K88
         K23P01O IC2023 08 15.05232723 34 36.35 +04 53 04.8          19.8 GVEQ001L01
         K23P01O KC2023 08 15.05401323 34 36.14 +04 52 53.8          20.1 GVEQ001L01
         K23P01O KC2023 08 15.05456423 34 34.81 +04 52 40.6          19.9 RoEQ001K88
         K23P01O KC2023 08 15.05569823 34 35.96 +04 52 43.1          20.1 GVEQ001L01
         K23P01O KC2023 08 15.05738123 34 35.77 +04 52 31.9          20.3 GVEQ001L01
         K23P01O KC2023 08 15.05900323 34 34.36 +04 52 12.5          20.1 RoEQ001K88
         K23P01O KC2023 08 15.05906523 34 35.60 +04 52 21.4          20.0 GVEQ001L01
         K23P01O KC2023 08 15.06248323 34 38.383+04 51 36.68         20.3 GVEQ001J95
         K23P01O KC2023 08 15.06562223 34 38.042+04 51 17.28         20.0 GVEQ001J95
         K23P01O KC2023 08 15.06854423 34 37.728+04 50 58.34         20.1 GVEQ001J95
         K23P01O KC2023 08 15.07930223 34 32.20 +04 50 01.5          19.8 RoEQ001K88
         K23P01O 1C2023 08 15.08633 23 34 33.31 +04 49 05.9          20.5 VXEQ001033
         K23P01O 1C2023 08 15.08690 23 34 33.23 +04 49 02.3          20.5 VXEQ001033
         K23P01O 1C2023 08 15.08748 23 34 33.18 +04 48 58.7          20.6 VXEQ001033
         K23P01O 1C2023 08 15.08813 23 34 33.12 +04 48 54.3          20.5 VXEQ001033
         K23P01O KC2023 08 15.24195723 34 42.00 +04 33 42.1          20.5 GXEQ001858
         K23P01O KC2023 08 15.24867523 34 41.38 +04 33 01.7          19.9 GXEQ001858
         K23P01O KB2023 08 15.25019 23 34 38.84 +04 32 40.9          20.2 rZEQ001H36
         K23P01O KC2023 08 15.25639123 34 40.63 +04 32 14.9          20.5 GXEQ001858
         K23P01O KB2023 08 15.26311 23 34 37.45 +04 31 22.3          20.3 rZEQ001H36
         K23P01O KB2023 08 15.27604 23 34 36.10 +04 30 04.4          20.4 rZEQ001H36
         K23P01O KC2023 08 15.31701623 34 29.67 +04 25 56.2          19.8 VuEQ001H21
         K23P01O KC2023 08 15.32002223 34 29.30 +04 25 37.8          19.9 VuEQ001H21
         K23P01O KC2023 08 15.32204723 34 29.08 +04 25 25.7          19.7 VuEQ001H21
         K23P01O KC2023 08 15.32582223 34 28.64 +04 25 03.1          18.8 VuEQ001H21
         K23P01O KC2023 08 15.32843523 34 28.34 +04 24 47.5          19.3 VuEQ001H21
         K23P01O KC2023 08 15.93787623 34 18.32 +03 28 22.8          20.1 GVEQ001104
         K23P01O KC2023 08 15.94640223 34 17.63 +03 27 39.8          20.0 GVEQ001104
         K23P01O KC2023 08 15.95361723 34 17.01 +03 27 03.9          19.7 GVEQ001104
         K23P01O KC2023 08 15.95713623 34 17.410+03 26 22.63               VEQ001J95
         K23P01O KC2023 08 15.96669123 34 15.21 +03 25 54.4          20.2 GXEQ001L01
         K23P01O KC2023 08 15.96843023 34 15.08 +03 25 45.5          20.3 GXEQ001L01
         K23P01O KC2023 08 15.96995123 34 14.86 +03 25 38.1          19.9 GXEQ001L01
         K23P01O KC2023 08 15.97008823 34 16.488+03 25 18.16         20.6 GVEQ001J95
         K23P01O KC2023 08 15.97125823 34 14.81 +03 25 30.9          20.0 GXEQ001L01
         K23P01O 1C2023 08 15.98112 23 34 13.74 +03 24 25.1          20.7 VXEQ001033
         K23P01O 1C2023 08 15.98176 23 34 13.68 +03 24 22.0          20.9 VXEQ001033
         K23P01O 1C2023 08 15.98239 23 34 13.63 +03 24 18.7          20.9 VXEQ001033
         K23P01O KC2023 08 15.99099523 34 14.878+03 23 33.11         20.5 GVEQ001J95
    
    Observer details:
    033 Karl Schwarzschild Observatory, Tautenburg.  Observers S. Melnikov, C.
        Hoegner, F. Ludwig, M. Hartmann, B. Stecklum.  Measurer B. Stecklum.
        1.34-m f/3 Schmidt + CCD.
    104 San Marcello Pistoiese.  Observers P. Bacci, M. Maestripieri.  Measurers
        P. Bacci, L. Tesi, G. Fagioli.  0.60-m F4 Reflector + CCD.
    858 Tebbutt Observatory, Edgewood.  Observer F. B. Zoltowski.  0.51-m f/8.1
        Schmidt-Cassegrain + CCD.
    H21 Astronomical Research Observatory, Westfield.  Observer R. Holmes.
        Measurers T. Linder, R. Holmes, L. Horn.  0.81-m f/4.0 astrograph + CCD.
    H36 Sandlot Observatory, Scranton.  Observer G. Hug.  0.56-m f/4.8 reflector +
        CMO.
    J95 Great Shefford.  Observer P. Birtwhistle.  0.41-m f/6.3 Schmidt-Cassegrain
        + CCD.
    K88 GINOP-KHK, Piszkesteto.  Observer K. Sarneczky.  0.60-m Schmidt + CCD.
    L01 Visnjan Observatory, Tican.  Observers K. Korlevic, E. Pettarin, I.
        Forkapa.  Measurer K. Korlevic.  1.0-m f/2.9 reflector + CCD.
    
    Orbital elements:
    2023 PO1                                                 Earth MOID = 0.0059 AU
    Epoch 2023 Sept. 13.0 TT = JDT 2460200.5                Veres                   
    M  30.64250              (2000.0)            P               Q                  
    n   0.46273520     Peri.  122.86184     +0.14184126     +0.98986212             
    a   1.6554435      Node   155.28943     -0.91398071     +0.13381289             
    e   0.4258010      Incl.    1.00768     -0.38015828     +0.04761408             
    P   2.13           H   26.20          G   0.15           U   9                  
    Residuals in seconds of arc
    230815 K88  0.5+  0.3+    230815 033  0.1-  0.2+    230815 H21  0.2-  0.2+
    230815 K88  0.3+  0.3+    230815 033  0.4-  0.3+    230815 104  0.4-  0.2-
    230815 K88  0.7-  0.5+    230815 033  0.3-  0.4+    230815 104  0.1+  0.2-
    230815 L01  0.0   0.3+    230815 033  0.2-  0.1+    230815 104  0.2+  0.2+
    230815 L01  0.4-  0.2+    230815 858  0.1+  0.1-    230815 J95  0.5-  0.1-
    230815 K88  0.2-  0.2-    230815 858  0.1+  0.1+    230815 L01  0.2+  0.0
    230815 L01  0.2-  0.4+    230815 H36  0.1+  0.5+    230815 L01  0.6+  0.2-
    230815 L01  0.3-  0.1+    230815 858  0.1-  0.1-    230815 L01  0.6-  0.1+
    230815 K88  0.2+  0.5+    230815 H36  0.7-  0.1+    230815 J95  0.1+  0.4+
    230815 L01  0.0   0.5+    230815 H36  0.2-  0.2+    230815 L01  0.5+  0.6-
    230815 J95  0.4+  0.7-    230815 H21  0.0   0.5+    230815 033  0.1+  0.0
    230815 J95  0.1+  0.1+    230815 H21  0.3-  0.1+    230815 033  0.1+  0.1+
    230815 J95  0.2-  0.1-    230815 H21  0.1-  0.1+    230815 033  0.1+  0.0
    230815 K88  0.2-  0.6+    230815 H21  0.2-  0.2+    230815 J95  0.4+  0.2-
    
    Ephemeris:
    2023 PO1                 a,e,i = 1.66, 0.43, 1                   q = 0.9506
    Date    TT    R. A. (2000) Decl.     Delta      r    Elong.  Phase     V
    2023 07 17    11 23 51.3 +10 08 52   0.1109  0.9556    54.0   120.6    26.2
    ...
    2023 08 01    11 30 22.6 +16 27 28   0.03722 0.9868    40.0   138.6    25.7
    ...
    2023 08 09    23 56 06.9 +64 14 01   0.0070201.0145    93.9    85.8    18.5
    ...
    2023 08 15    23 34 38.4 +05 01 47   0.03209 1.0394   144.8    34.2    20.2
    2023 08 16    23 34 09.0 +03 25 50   0.03687 1.0438   146.7    32.2    20.5
    2023 08 17    23 33 42.4 +02 11 20   0.04169 1.0484   148.4    30.4    20.7
    ...
    2023 08 23    23 31 20.5 -01 49 17   0.07120 1.0771   156.6    21.9    21.7
    ...
    2023 08 31    23 28 16.4 -04 01 54   0.1125  1.1191   165.9    12.7    22.5
    ...
    2023 09 15    23 23 13.0 -05 46 31   0.2000  1.2057   177.2     2.4    23.4
    
                           (Last issue was M.P.E.C. 2023-P87)                       
    
    M. P. C. Staff               (C) Copyright 2023 MPC           M.P.E.C. 2023-Q01
    


    Read MPEC 2023-P87 Read MPEC 2023-Q02


    MPEC number:

    Enter an MPEC number in one of the following forms:

    • 1997-B01 (the full form)
    • J97B01 (the packed version of the full form)
    • B01 (the abbreviated form)